TimeEDT,TemperatureF,Dew PointF,Humidity,Sea Level PressureIn,VisibilityMPH,Wind Direction,Wind SpeedMPH,Gust SpeedMPH,PrecipitationIn,Events,Conditions,WindDirDegrees,DateUTC
12:53 AM,35.1,17.1,48,30.17,10.0,Calm,Calm,-,N/A,,Clear,0,2013-03-20 04:53:00
1:53 AM,34.0,19.0,54,30.16,10.0,Calm,Calm,-,N/A,,Clear,0,2013-03-20 05:53:00
2:53 AM,33.1,19.0,56,30.16,10.0,Calm,Calm,-,N/A,,Clear,0,2013-03-20 06:53:00
3:53 AM,30.0,19.9,66,30.15,10.0,Calm,Calm,-,N/A,,Clear,0,2013-03-20 07:53:00
4:53 AM,30.0,21.0,69,30.12,10.0,Calm,Calm,-,N/A,,Clear,0,2013-03-20 08:53:00
5:53 AM,30.0,19.9,66,30.11,10.0,Calm,Calm,-,N/A,,Clear,0,2013-03-20 09:53:00
6:53 AM,28.9,19.0,67,30.11,10.0,SSW,4.6,-,N/A,,Clear,200,2013-03-20 10:53:00
7:53 AM,30.0,19.9,66,30.12,10.0,SSW,4.6,-,N/A,,Clear,200,2013-03-20 11:53:00
8:53 AM,34.0,21.0,59,30.13,10.0,SW,6.9,-,N/A,,Clear,220,2013-03-20 12:53:00
9:53 AM,37.9,19.9,48,30.11,10.0,West,13.8,-,N/A,,Clear,270,2013-03-20 13:53:00
10:53 AM,39.9,19.0,43,30.10,10.0,West,13.8,-,N/A,,Clear,270,2013-03-20 14:53:00
11:53 AM,42.1,17.1,37,30.09,10.0,West,16.1,24.2,N/A,,Clear,270,2013-03-20 15:53:00
12:53 PM,43.0,14.0,31,30.09,10.0,WNW,21.9,31.1,N/A,,Clear,300,2013-03-20 16:53:00
1:53 PM,39.9,14.0,35,30.09,10.0,WNW,19.6,28.8,N/A,,Clear,300,2013-03-20 17:53:00
2:53 PM,41.0,15.1,35,30.07,10.0,WNW,17.3,-,N/A,,Mostly Cloudy,290,2013-03-20 18:53:00
3:53 PM,37.9,14.0,38,30.05,10.0,WNW,17.3,28.8,N/A,,Partly Cloudy,290,2013-03-20 19:53:00
4:53 PM,39.0,10.0,30,30.04,10.0,West,17.3,27.6,N/A,,Partly Cloudy,280,2013-03-20 20:53:00
5:53 PM,36.0,10.0,34,30.06,10.0,West,25.3,29.9,N/A,,Mostly Cloudy,280,2013-03-20 21:53:00
6:53 PM,34.0,10.9,38,30.07,10.0,NW,21.9,27.6,N/A,,Overcast,310,2013-03-20 22:53:00
7:53 PM,30.9,10.9,43,30.09,10.0,WNW,17.3,27.6,N/A,,Overcast,300,2013-03-20 23:53:00
8:53 PM,28.9,10.9,47,30.09,10.0,NW,18.4,-,N/A,,Mostly Cloudy,310,2013-03-21 00:53:00
9:53 PM,28.0,10.9,49,30.10,10.0,WNW,9.2,-,N/A,,Partly Cloudy,290,2013-03-21 01:53:00
10:53 PM,27.0,10.0,49,30.09,10.0,WNW,9.2,-,N/A,,Clear,290,2013-03-21 02:53:00
11:53 PM,26.1,10.9,53,30.09,10.0,West,10.4,-,N/A,,Clear,280,2013-03-21 03:53:00